This is the latest recevied weather packets stored in our database for station/object N2MLB-WX. If no packets are shown the sender has not sent any weather packets the latest 10 day(s).
| Time | Temp. | Humidity | Pressure | Rain* | Wind** | Luminosity | Snow |
|---|---|---|---|---|---|---|---|
| 1777481841 | 10.56° C | 94% | 1005 hPa | 2.03 mm | - | 5 W/m² | - |
| 1777481540 | 10.56° C | 93% | 1005 hPa | 2.03 mm | - | 7 W/m² | - |
| 1777481240 | 11.11° C | 92% | 1005 hPa | 2.03 mm | - | 9 W/m² | - |
| 1777480940 | 11.11° C | 91% | 1005 hPa | 1.78 mm | - | 16 W/m² | - |
| 1777480640 | 11.67° C | 91% | 1005 hPa | 1.78 mm | - | 20 W/m² | - |
| 1777480340 | 11.67° C | 90% | 1005 hPa | 1.78 mm | - | 18 W/m² | - |
| 1777480040 | 12.22° C | 92% | 1005 hPa | 2.03 mm | - | 24 W/m² | - |
| 1777479740 | 12.22° C | 91% | 1005 hPa | 1.78 mm | - | 36 W/m² | - |
| 1777479439 | 11.67° C | 91% | 1005 hPa | 2.29 mm | - | 27 W/m² | - |
| 1777479141 | 12.22° C | 91% | 1005 hPa | 2.54 mm | - | 30 W/m² | - |
| 1777478840 | 12.22° C | 91% | 1005 hPa | 2.54 mm | - | 41 W/m² | - |
| 1777478544 | 11.67° C | 92% | 1005 hPa | 2.54 mm | - | 36 W/m² | - |
| 1777478241 | 11.67° C | 92% | 1006 hPa | 2.54 mm | - | 22 W/m² | - |
| 1777477940 | 11.67° C | 92% | 1006 hPa | 2.54 mm | - | 18 W/m² | - |
| 1777477640 | 11.67° C | 91% | 1006 hPa | 2.54 mm | - | 14 W/m² | - |
| 1777477341 | 11.67° C | 91% | 1006 hPa | 4.57 mm | - | 11 W/m² | - |
| 1777477041 | 12.22° C | 90% | 1006 hPa | 8.38 mm | - | 11 W/m² | - |
| 1777476742 | 12.22° C | 88% | 1006 hPa | 0 mm | - | 10 W/m² | - |
| 1777476441 | 12.78° C | 86% | 1006 hPa | 0 mm | - | 5 W/m² | - |
| 1777476142 | 12.78° C | 83% | 1006 hPa | 0 mm | - | 5 W/m² | - |
| 1777475840 | 13.33° C | 81% | 1006 hPa | 0 mm | - | 9 W/m² | - |
| 1777475542 | 13.33° C | 80% | 1006 hPa | 0 mm | - | 11 W/m² | - |
| 1777475242 | 13.33° C | 79% | 1006 hPa | 0 mm | - | 12 W/m² | - |
| 1777474942 | 13.89° C | 78% | 1006 hPa | 0 mm | - | 12 W/m² | - |
| 1777474642 | 13.33° C | 79% | 1007 hPa | 0 mm | - | 10 W/m² | - |
* Rain latest hour (hover to see other rain measurements)
** Current wind speed in m/s (hover to see current wind gust speed)